This is the latest recevied weather packets stored in our database for station/object KI5NXU. If no packets are shown the sender has not sent any weather packets the latest 10 day(s).
| Time | Temp. | Humidity | Pressure | Rain* | Wind** | Luminosity | Snow |
|---|---|---|---|---|---|---|---|
| 1787981229 | 28.89° C | 48% | 1017 hPa | 0 mm | - | 0 W/m² | - |
| 1787980928 | 28.89° C | 48% | 1016.8 hPa | 0 mm | - | 0 W/m² | - |
| 1787980627 | 28.89° C | 48% | 1017 hPa | 0 mm | - | 0 W/m² | - |
| 1787980323 | 28.89° C | 47% | 1016.6 hPa | 0 mm | - | 0 W/m² | - |
| 1787980018 | 28.89° C | 48% | 1016.7 hPa | 0 mm | - | 0 W/m² | - |
| 1787979713 | 28.89° C | 47% | 1016.8 hPa | 0 mm | - | 0 W/m² | - |
| 1787979413 | 28.89° C | 47% | 1016.7 hPa | 0 mm | - | 0 W/m² | - |
| 1787979112 | 28.89° C | 47% | 1016.9 hPa | 0 mm | - | 0 W/m² | - |
| 1787978811 | 28.89° C | 47% | 1016.6 hPa | 0 mm | - | 0 W/m² | - |
| 1787978507 | 28.89° C | 47% | 1016.9 hPa | 0 mm | - | 0 W/m² | - |
| 1787978202 | 29.44° C | 47% | 1016.6 hPa | 0 mm | - | 0 W/m² | - |
| 1787977902 | 28.89° C | 47% | 1016.4 hPa | 0 mm | - | 0 W/m² | - |
| 1787977601 | 28.89° C | 48% | 1016.7 hPa | 0 mm | - | 0 W/m² | - |
| 1787977297 | 29.44° C | 47% | 1016.6 hPa | 0 mm | - | 0 W/m² | - |
| 1787976992 | 30° C | 46% | 1016.6 hPa | 0 mm | - | 0 W/m² | - |
| 1787976692 | 30° C | 45% | 1016.4 hPa | 0 mm | - | 0 W/m² | - |
| 1787976388 | 30° C | 45% | 1016.3 hPa | 0 mm | - | 0 W/m² | - |
| 1787976082 | 30° C | 45% | 1016.4 hPa | 0 mm | - | 0 W/m² | - |
| 1787975781 | 30° C | 44% | 1016.7 hPa | 0 mm | - | 0 W/m² | - |
| 1787975480 | 30.56° C | 44% | 1016.4 hPa | 0 mm | - | 0 W/m² | - |
| 1787975179 | 30° C | 44% | 1016.3 hPa | 0 mm | - | 0 W/m² | - |
| 1787974879 | 30.56° C | 44% | 1016.4 hPa | 0 mm | - | 0 W/m² | - |
| 1787974578 | 30.56° C | 43% | 1016.4 hPa | 0 mm | - | 0 W/m² | - |
| 1787974273 | 31.67° C | 41% | 1016.3 hPa | 0 mm | - | 0 W/m² | - |
| 1787973972 | 31.67° C | 41% | 1016.2 hPa | 0 mm | - | 0 W/m² | - |
* Rain latest hour (hover to see other rain measurements)
** Current wind speed in m/s (hover to see current wind gust speed)